User: anonymous
Location: Sunrise Point
(46.9200°N, 121.5900°W)
Time: 14:25:15
(UTC-07:00)
Language:

Cosmos 2058 - Orbit

View from above orbital plane
View from above orbital plane
View from above satellite
View from above satellite

Ground track
Ground track

The orbit data is extracted from the following two-line orbital elements,

1 20465U 90010A   14113.84293709  .00004298  00000-0  39352-3 0   910
2 20465 082.4898 272.0650 0016430 198.8174 161.2442 14.94640520313295
Epoch (UTC): 23 April 2014 20:13:49
Eccentricity: 0.0016430
inclination: 82.4898°
perigee height: 572 km
apogee height: 595 km
right ascension of ascending node: 272.0650°
argument of perigee: 198.8174°
revolutions per day: 14.94640520
mean anomaly at epoch: 161.2442°
orbit number at epoch: 31329

The dashed part of the orbit path shows where the satellite is in the earth's shadow,  

DLR